JST1691 YMML-YSSY

Flight info

Callsign JST1691
Flight time 1h 4m
Altitude 37000
Route DOSEL2/34 DOSEL Y59 RIVET
Aircraft A320/M-SDE3FGHIRWY/LB1

Departure

Time 2026-05-04 09:04
Airport Melbourne Airport (YMML)

Arrival

Time 2026-05-04 10:08
Airport Sydney Kingsford Smith International Airport (YSSY)
Time Latitude Longitude Altitude Speed Heading
2026-05-04 08:24 -37.67132 144.84591 359 ft 0 kts 353°
2026-05-04 08:50 -37.67200 144.84615 362 ft 0 kts 264°
2026-05-04 08:54 -37.67284 144.84285 367 ft 14 kts 171°
2026-05-04 08:55 -37.67397 144.84308 362 ft 19 kts 171°
2026-05-04 08:55 -37.67539 144.84331 363 ft 23 kts 173°
2026-05-04 08:55 -37.67708 144.84364 354 ft 27 kts 170°
2026-05-04 08:55 -37.67841 144.84303 352 ft 16 kts 236°
2026-05-04 08:57 -37.67855 144.84252 355 ft 0 kts 260°
2026-05-04 09:01 -37.67875 144.84089 354 ft 6 kts 261°
2026-05-04 09:01 -37.67882 144.84028 355 ft 8 kts 261°
2026-05-04 09:01 -37.67846 144.83961 358 ft 8 kts 344°
2026-05-04 09:01 -37.67823 144.83957 358 ft 0 kts 352°
2026-05-04 09:03 -37.67791 144.83951 356 ft 16 kts 352°
2026-05-04 09:03 -37.67411 144.83880 371 ft 94 kts 351°
2026-05-04 09:03 -37.66553 144.83718 413 ft 150 kts 353°
2026-05-04 09:04 -37.65484 144.83519 1021 ft 160 kts 352°
2026-05-04 09:04 -37.64322 144.83295 1666 ft 181 kts 348°
2026-05-04 09:04 -37.63030 144.83039 2330 ft 197 kts 346°
2026-05-04 09:04 -37.61661 144.82772 3045 ft 201 kts 346°
2026-05-04 09:05 -37.60268 144.82503 3702 ft 205 kts 345°
2026-05-04 09:05 -37.58801 144.82546 4351 ft 221 kts
2026-05-04 09:05 -37.57341 144.83328 4926 ft 234 kts 18°
2026-05-04 09:05 -37.55872 144.84230 5031 ft 236 kts 18°
2026-05-04 09:06 -37.54343 144.85163 5324 ft 255 kts 19°
2026-05-04 09:07 -37.42590 144.93543 10249 ft 306 kts 49°
2026-05-04 09:08 -37.41365 144.95718 10916 ft 310 kts 51°
2026-05-04 09:08 -37.40118 144.97948 11587 ft 314 kts 51°
2026-05-04 09:08 -37.38851 145.00206 12251 ft 317 kts 50°
2026-05-04 09:08 -37.37574 145.02475 12937 ft 319 kts 50°
2026-05-04 09:09 -37.36283 145.04760 13639 ft 322 kts 50°
2026-05-04 09:09 -37.34978 145.07065 14243 ft 325 kts 50°
2026-05-04 09:09 -37.34552 145.07815 14438 ft 326 kts 50°
2026-05-04 09:09 -37.32347 145.11700 15438 ft 330 kts 50°
2026-05-04 09:10 -37.31006 145.14064 16034 ft 333 kts 50°
2026-05-04 09:10 -37.29655 145.16445 16629 ft 336 kts 50°
2026-05-04 09:10 -37.28294 145.18840 17222 ft 338 kts 50°
2026-05-04 09:10 -37.26920 145.21256 17813 ft 341 kts 50°
2026-05-04 09:12 -37.18147 145.36657 21076 ft 355 kts 50°
2026-05-04 09:14 -37.05675 145.53440 22494 ft 405 kts 12°
2026-05-04 09:14 -37.02975 145.54470 22926 ft 407 kts 12°
2026-05-04 09:14 -37.00285 145.55480 23375 ft 410 kts 12°
2026-05-04 09:14 -36.97547 145.56509 23746 ft 412 kts 12°
2026-05-04 09:15 -36.94805 145.57562 24133 ft 413 kts 12°
2026-05-04 09:15 -36.92058 145.58637 24501 ft 414 kts 12°
2026-05-04 09:15 -36.89308 145.59733 24881 ft 416 kts 12°
2026-05-04 09:15 -36.86558 145.60848 25247 ft 417 kts 12°
2026-05-04 09:17 -36.70884 145.83443 27908 ft 475 kts 54°
2026-05-04 09:18 -36.69367 145.87107 28194 ft 477 kts 54°
2026-05-04 09:18 -36.67836 145.90783 28440 ft 479 kts 53°
2026-05-04 09:18 -36.66317 145.94411 28825 ft 479 kts 53°
2026-05-04 09:18 -36.64780 145.98081 29227 ft 478 kts 53°
2026-05-04 09:19 -36.63240 146.01749 29627 ft 478 kts 53°
2026-05-04 09:19 -36.61698 146.05412 30022 ft 478 kts 53°
2026-05-04 09:19 -36.60156 146.09072 30422 ft 476 kts 53°
2026-05-04 09:19 -36.58618 146.12717 30780 ft 475 kts 53°
2026-05-04 09:20 -36.57082 146.16358 31081 ft 476 kts 53°
2026-05-04 09:20 -36.55539 146.20004 31379 ft 476 kts 53°
2026-05-04 09:20 -36.54013 146.23599 31685 ft 476 kts 53°
2026-05-04 09:20 -36.52969 146.26060 31899 ft 477 kts 53°
2026-05-04 09:21 -36.50919 146.30886 32322 ft 477 kts 53°
2026-05-04 09:21 -36.49367 146.34538 32655 ft 477 kts 53°
2026-05-04 09:21 -36.47823 146.38180 33000 ft 477 kts 53°
2026-05-04 09:21 -36.46273 146.41832 33332 ft 477 kts 53°
2026-05-04 09:22 -36.44722 146.45479 33614 ft 478 kts 53°
2026-05-04 09:22 -36.43163 146.49136 33915 ft 479 kts 53°
2026-05-04 09:22 -36.41602 146.52795 34192 ft 480 kts 53°
2026-05-04 09:22 -36.40044 146.56451 34446 ft 480 kts 54°
2026-05-04 09:23 -36.38477 146.60124 34701 ft 481 kts 54°
2026-05-04 09:23 -36.36910 146.63786 34958 ft 481 kts 54°
2026-05-04 09:23 -36.35356 146.67406 35184 ft 482 kts 54°
2026-05-04 09:23 -36.33776 146.71077 35399 ft 482 kts 54°
2026-05-04 09:25 -36.23221 146.95568 36866 ft 484 kts 54°
2026-05-04 09:25 -36.21088 147.00491 37019 ft 485 kts 54°
2026-05-04 09:26 -36.17825 147.07699 37058 ft 478 kts 47°
2026-05-04 09:26 -36.14543 147.13217 37059 ft 473 kts 45°
2026-05-04 09:27 -36.10637 147.19692 37063 ft 472 kts 45°
2026-05-04 09:27 -36.06703 147.26191 37057 ft 472 kts 45°
2026-05-04 09:28 -36.04733 147.29438 36863 ft 472 kts 50°
2026-05-04 09:28 -36.02140 147.33721 37084 ft 470 kts 45°
2026-05-04 09:28 -35.98854 147.39151 37050 ft 470 kts 44°
2026-05-04 09:29 -35.94955 147.45570 37067 ft 470 kts 44°
2026-05-04 09:29 -35.91024 147.52021 37072 ft 471 kts 44°
2026-05-04 09:30 -35.87086 147.58476 37074 ft 470 kts 44°
2026-05-04 09:30 -35.83150 147.64920 37079 ft 470 kts 44°
2026-05-04 09:31 -35.79245 147.71308 37059 ft 470 kts 44°
2026-05-04 09:31 -35.75267 147.77787 37086 ft 479 kts 44°
2026-05-04 09:32 -35.71200 147.84388 37085 ft 488 kts 44°
2026-05-04 09:34 -35.54522 148.11440 37096 ft 498 kts 44°
2026-05-04 09:34 -35.50346 148.18167 37064 ft 499 kts 44°
2026-05-04 09:35 -35.46133 148.24950 37084 ft 500 kts 44°
2026-05-04 09:35 -35.41909 148.31729 37105 ft 500 kts 44°
2026-05-04 09:37 -35.27150 148.55344 36496 ft 497 kts 44°
2026-05-04 09:37 -35.25047 148.58694 35769 ft 495 kts 43°
2026-05-04 09:38 -35.22946 148.62032 35073 ft 494 kts 43°
2026-05-04 09:38 -35.20851 148.65354 34571 ft 493 kts 43°
2026-05-04 09:38 -35.18755 148.68675 34127 ft 494 kts 42°
2026-05-04 09:38 -35.16657 148.72001 33588 ft 494 kts 43°
2026-05-04 09:39 -35.14561 148.75318 33057 ft 493 kts 43°
2026-05-04 09:39 -35.12493 148.78591 32533 ft 492 kts 43°
2026-05-04 09:39 -35.10408 148.81895 32130 ft 491 kts 43°
2026-05-04 09:39 -35.08325 148.85189 31755 ft 490 kts 43°
2026-05-04 09:40 -35.06241 148.88482 31357 ft 490 kts 43°
2026-05-04 09:40 -35.04156 148.91774 30985 ft 490 kts 43°
2026-05-04 09:40 -35.02071 148.95059 30625 ft 490 kts 43°
2026-05-04 09:40 -34.99984 148.98348 30269 ft 490 kts 43°
2026-05-04 09:41 -34.97902 149.01626 29876 ft 489 kts 43°
2026-05-04 09:42 -34.83297 149.24500 27041 ft 491 kts 44°
2026-05-04 09:43 -34.81225 149.27739 26667 ft 492 kts 44°
2026-05-04 09:43 -34.79096 149.31063 26296 ft 492 kts 44°
2026-05-04 09:43 -34.77020 149.34295 25822 ft 489 kts 44°
2026-05-04 09:43 -34.74934 149.37555 24936 ft 490 kts 45°
2026-05-04 09:44 -34.73081 149.41096 24488 ft 502 kts 54°
2026-05-04 09:44 -34.71442 149.44859 24057 ft 503 kts 54°
2026-05-04 09:44 -34.69808 149.48612 23617 ft 504 kts 54°
2026-05-04 09:46 -34.59253 149.72784 20118 ft 443 kts 55°
2026-05-04 09:46 -34.57813 149.76056 19523 ft 437 kts 55°
2026-05-04 09:46 -34.56389 149.79293 18932 ft 432 kts 56°
2026-05-04 09:47 -34.54982 149.82487 18376 ft 428 kts 56°
2026-05-04 09:47 -34.53604 149.85613 17753 ft 424 kts 56°
2026-05-04 09:49 -34.44176 150.06925 13909 ft 397 kts 56°
2026-05-04 09:49 -34.42875 150.09859 13326 ft 394 kts 55°
2026-05-04 09:49 -34.41583 150.12766 13068 ft 392 kts 56°
2026-05-04 09:51 -34.33842 150.30147 13038 ft 391 kts 57°
2026-05-04 09:51 -34.32551 150.33038 12903 ft 389 kts 56°
2026-05-04 09:51 -34.31270 150.35904 12241 ft 386 kts 56°
2026-05-04 09:51 -34.29999 150.38744 11557 ft 383 kts 56°
2026-05-04 09:52 -34.28754 150.41526 10974 ft 379 kts 56°
2026-05-04 09:52 -34.27506 150.44316 10389 ft 376 kts 56°
2026-05-04 09:52 -34.26269 150.47082 10092 ft 374 kts 57°
2026-05-04 09:52 -34.25030 150.49849 9990 ft 373 kts 56°
2026-05-04 09:53 -34.23806 150.52589 9410 ft 369 kts 57°
2026-05-04 09:53 -34.22591 150.55302 8939 ft 362 kts 56°
2026-05-04 09:53 -34.21420 150.57926 8692 ft 349 kts 57°
2026-05-04 09:53 -34.20274 150.60487 8224 ft 345 kts 56°
2026-05-04 09:54 -34.19134 150.63030 7685 ft 343 kts 57°
2026-05-04 09:54 -34.18000 150.65557 7192 ft 342 kts 57°
2026-05-04 09:54 -34.16884 150.68041 7021 ft 342 kts 57°
2026-05-04 09:54 -34.15742 150.70572 7023 ft 344 kts 57°
2026-05-04 09:55 -34.14597 150.73107 7027 ft 344 kts 57°
2026-05-04 09:55 -34.13451 150.75645 7014 ft 344 kts 56°
2026-05-04 09:55 -34.12314 150.78166 7019 ft 339 kts 56°
2026-05-04 09:55 -34.11189 150.80664 7019 ft 338 kts 56°
2026-05-04 09:56 -34.10063 150.83154 7020 ft 337 kts 56°
2026-05-04 09:56 -34.08968 150.85582 7016 ft 320 kts 56°
2026-05-04 09:56 -34.07937 150.87888 7018 ft 304 kts 56°
2026-05-04 09:56 -34.06957 150.90084 7017 ft 292 kts 55°
2026-05-04 09:57 -34.05940 150.92323 7018 ft 310 kts 55°
2026-05-04 09:57 -34.04942 150.94526 7006 ft 295 kts 55°
2026-05-04 09:57 -34.04061 150.96702 7010 ft 285 kts 65°
2026-05-04 09:57 -34.03707 150.99019 6998 ft 279 kts 84°
2026-05-04 09:58 -34.03949 151.01303 7005 ft 271 kts 103°
2026-05-04 09:58 -34.04718 151.03355 7008 ft 271 kts 121°
2026-05-04 09:58 -34.05932 151.05092 7004 ft 271 kts 132°
2026-05-04 10:00 -34.17953 151.10292 5871 ft 254 kts 170°
2026-05-04 10:00 -34.19651 151.10778 5562 ft 247 kts 160°
2026-05-04 10:02 -34.19983 151.22163 3057 ft 196 kts 41°
2026-05-04 10:04 -34.12017 151.22148 2979 ft 179 kts 346°
2026-05-04 10:04 -34.10807 151.21815 2814 ft 177 kts 347°
2026-05-04 10:04 -34.09627 151.21502 2616 ft 170 kts 347°
2026-05-04 10:04 -34.08489 151.21203 2394 ft 164 kts 348°
2026-05-04 10:05 -34.07390 151.20916 2185 ft 159 kts 348°
2026-05-04 10:05 -34.06333 151.20641 1975 ft 150 kts 348°
2026-05-04 10:05 -34.05350 151.20385 1794 ft 141 kts 350°
2026-05-04 10:05 -34.04416 151.20142 1619 ft 136 kts 349°
2026-05-04 10:06 -34.03495 151.19902 1442 ft 134 kts 348°
2026-05-04 10:06 -34.02579 151.19664 1262 ft 135 kts 348°
2026-05-04 10:06 -34.01652 151.19429 1058 ft 137 kts 347°
2026-05-04 10:08 -33.95929 151.17937 25 ft 137 kts 349°
2026-05-04 10:08 -33.95157 151.17740 21 ft 88 kts 347°
2026-05-04 10:08 -33.94726 151.17625 23 ft 44 kts 347°
2026-05-04 10:08 -33.94516 151.17526 24 ft 29 kts 335°
2026-05-04 10:09 -33.94374 151.17403 26 ft 11 kts 313°
2026-05-04 10:09 -33.94346 151.17364 28 ft 0 kts 311°
2026-05-04 10:10 -33.94334 151.17353 28 ft 9 kts 321°
2026-05-04 10:10 -33.94240 151.17290 25 ft 18 kts 340°
2026-05-04 10:10 -33.94108 151.17256 22 ft 21 kts 350°
2026-05-04 10:11 -33.93968 151.17254 21 ft 20 kts 52°
2026-05-04 10:11 -33.93927 151.17416 18 ft 21 kts 73°
2026-05-04 10:11 -33.93886 151.17593 19 ft 24 kts 74°
2026-05-04 10:11 -33.93842 151.17777 21 ft 6 kts 75°
2026-05-04 10:12 -33.93836 151.17779 23 ft 4 kts 23°
2026-05-04 10:12 -33.93767 151.17789 25 ft 11 kts
2026-05-04 10:12 -33.93670 151.17810 30 ft 23 kts 12°
2026-05-04 10:12 -33.93571 151.17812 30 ft 9 kts 300°
2026-05-04 10:13 -33.93565 151.17775 30 ft 1 kts 280°
2026-05-04 10:13 -33.93564 151.17764 30 ft 0 kts 279°